SCP
1 0 0 0 0 0 0 0 0 0 0 0 0 0 1 0 1 0 0 1 1 0 0 0 0 0 0 0 0 0 0 0 0 0 0 0 0 0 0 0 0 0 0
2 1 0 0 0 0 0 0 0 0 0 0 0 0 0 0 0 0 0 1 1 1 0 0 0 0 0 1 1 0 0 0 0 0 0 0 0 0 0 0 0 0 0
1 1 0 0 0 0 0 0 0 0 0 0 0 0 0 0 0 0 1 0 0 2 1 1 1 1 1 1 1 1 1 1 1 0 0 0 0 0 0 0 0 0 0
2 2 1 1 1 0 0 0 0 0 0 0 0 0 0 0 0 0 0 0 0 0 2 2 1 1 1 1 2 2 1 1 1 1 1 0 0 0 0 0 0 0 0
0 2 2 2 2 0 0 0 0 0 0 0 0 0 0 0 0 0 0 0 1 0 1 1 2 2 2 2 3 2 2 2 1 1 1 1 0 0 0 0 0 0 0
2 3 2 1 1 1 0 0 1 0 0 0 0 0 0 0 -0 0 0 0 0 1 1 1 2 4 3 2 3 3 3 3 2 2 2 1 1 1 1 1 1 0 0
1 1 2 1 1 1 1 1 1 1 0 0 0 0 0 0 0 0 0 0 1 1 0 0 0 0 2 5 5 3 3 2 2 1 1 1 1 1 1 1 0 0 0
1 0 1 1 1 0 0 0 0 0 0 0 0 0 0 0 0 0 0 0 2 1 1 0 0 0 1 1 3 3 2 2 2 1 1 1 1 1 0 0 0 0 0
0 1 1 0 0 0 0 0 0 0 0 0 0 0 0 0 0 -0 0 0 0 1 1 2 1 1 1 1 1 3 3 2 2 1 0 0 0 0 0 0 0 0 0
0 0 0 0 0 0 0 0 0 0 0 0 0 0 0 0 0 0 0 0 0 1 1 1 1 1 1 1 1 3 2 2 1 1 0 0 0 0 0 0 0 0 0
0 0 0 0 0 0 0 0 0 0 0 0 0 0 0 0 0 0 -0 0 0 0 0 0 0 0 1 0 0 0 0 -0 0 0 0 0 0 0 0 0 0 0 0
0 0 0 0 0 0 0 0 0 0 0 0 0 0 0 0 0 0 0 0 0 0 0 0 0 0 0 0 0 0 0 0 0 0 0 0 0 0 0 0 0 0 0
0 0 0 0 0 0 0 0 0 0 0 0 0 0 0 0 0 0 0 0 -0 0 0 0 0 0 0 0 0 0 0 0 0 0 0 0 0 0 0 0 0 0 0
0 0 0 0 0 0 0 0 0 0 0 0 0 0 0 0 0 0 0 0 0 0 0 0 0 0 0 0 0 0 0 0 0 0 0 0 0 0 0 0 0 0 0
0 0 0 0 0 0 0 0 0 0 0 0 0 0 0 0 0 0 0 0 0 0 0 0 0 0 0 0 0 0 0 0 0 0 0 0 0 0 0 0 0 0 0
0 0 0 0 0 0 0 0 0 0 0 0 0 0 0 0 0 0 0 0 0 0 0 0 0 0 0 0 0 0 0 0 0 0 0 0 0 0 0 0 0 0 0
0 0 0 0 0 0 0 0 0 0 0 0 0 0 0 0 0 0 0 0 0 0 0 0 0 0 0 0 0 0 0 0 -0 0 0 0 0 0 0 0 0 0 0
0 0 0 0 0 0 0 0 0 0 -0 0 0 0 0 0 0 0 0 0 -0 0 0 0 0 0 0 0 0 -0 -0 0 0 0 0 0 0 0 0 0 0 0 0
0 0 0 0 0 0 0 0 0 0 -0 -0 0 0 0 0 0 0 0 0 0 0 0 0 0 0 0 0 0 0 0 0 0 0 0 0 0 0 0 0 0 0 0
0 0 0 0 0 0 0 0 0 -0 -0 0 0 0 0 0 0 0 0 0 0 0 0 0 0 -0 -0 -0 0 0 0 0 -0 0 0 0 0 0 0 0 0 0 0
0 0 0 0 0 0 0 0 0 -0 -0 -0 0 0 0 0 0 0 0 0 0 0 0 0 0 0 -0 0 0 0 0 0 0 -0 0 0 -0 -0 -0 0 -0 0 0
0 0 0 0 0 0 0 -0 -0 -0 0 0 0 0 0 0 0 0 0 0 0 0 0 0 0 0 0 0 0 0 0 0 0 0 0 0 0 0 -0 -0 -0 -0 -0
0 0 0 0 0 0 -0 -0 -0 0 0 0 0 0 0 0 0 0 0 0 0 0 0 0 0 0 0 0 0 0 0 0 0 0 0 0 -0 0 0 -0 -0 -0 -0
0 0 0 0 0 0 -0 -0 -0 0 0 0 0 0 0 0 0 0 0 0 0 0 0 0 0 -0 0 0 0 0 0 0 0 0 0 0 -0 -0 0 -0 -0 -0 -0
0 0 0 0 0 0 -0 -0 -0 0 0 0 0 0 0 0 0 0 0 0 0 0 0 0 -0 -0 -0 0 0 0 0 0 0 -0 -0 -0 -0 -0 0 0 -0 -0 -0
0 0 0 0 0 0 -0 -0 0 0 0 0 0 0 0 0 0 0 0 0 0 0 0 0 0 0 0 0 0 0 0 0 0 -0 -0 -0 -0 0 -0 -0 -0 0 0
Wind_Speed_500mb
27 34 24 26 29 29 28 33 36 44 53 45 37 37 35 44 46 53 17 22 29 33 38 33 32 31 31 31 28 25 29 28 29 27 24 19 16 15 15 15 16 17 17
23 30 25 27 28 32 28 32 38 41 42 40 46 46 38 28 27 32 20 24 24 29 34 32 32 34 34 32 34 29 30 29 30 28 25 25 22 21 20 20 21 21 19
30 26 32 27 32 29 31 25 39 43 43 40 39 41 40 38 29 20 18 36 33 35 43 39 36 39 36 34 38 34 32 30 26 25 25 26 24 24 22 22 24 25 27
28 27 32 35 37 41 32 44 44 43 46 48 42 42 47 46 44 38 16 14 34 34 46 45 42 38 43 38 39 37 35 33 27 24 25 25 24 23 22 22 24 24 24
36 38 42 35 37 39 28 40 46 55 49 45 53 53 49 48 52 45 36 23 30 32 28 40 42 43 40 46 41 41 39 38 33 28 27 26 23 22 21 23 22 23 21
45 45 48 45 39 35 30 41 52 60 54 55 48 49 50 53 47 48 45 38 47 40 41 35 51 66 46 42 46 48 43 42 38 34 32 28 26 25 24 23 23 19 17
50 51 52 28 39 40 43 45 43 48 52 55 58 53 49 41 42 46 44 40 38 49 53 57 76 48 19 37 49 48 47 47 42 38 34 29 28 25 23 20 19 19 18
36 37 34 43 44 54 60 52 50 57 59 50 50 52 46 49 49 37 43 53 43 54 45 30 27 33 29 34 45 52 54 52 46 42 35 30 25 22 22 20 19 18 15
52 47 42 50 63 55 49 42 47 50 55 52 50 53 47 46 40 54 45 36 46 43 33 27 31 36 37 42 51 55 56 51 51 42 34 29 25 21 26 25 21 21 22
69 72 64 49 40 39 52 58 61 52 48 47 45 52 51 57 43 46 49 32 32 36 36 33 32 30 30 39 45 73 61 48 39 35 32 30 28 25 20 15 15 15 18
42 35 37 43 48 51 57 62 63 64 66 61 49 53 58 58 53 45 53 48 28 25 32 26 21 23 26 25 24 47 53 47 33 30 30 22 20 16 14 13 12 13 14
62 49 48 54 57 62 60 57 53 47 53 66 64 57 53 48 48 64 53 60 52 39 36 29 20 21 18 8 39 37 35 36 36 24 21 17 13 11 8 4 4 6 7
61 59 51 50 44 48 47 46 44 46 45 44 52 63 59 54 57 56 60 56 52 38 25 30 30 33 26 16 43 41 31 31 27 19 13 9 7 7 4 3 2 4 8
47 43 42 42 46 51 49 50 48 49 46 52 50 54 56 56 58 57 57 39 31 25 22 20 26 27 17 22 28 28 35 31 23 15 13 12 10 8 6 4 3 5 8
44 44 49 56 59 59 61 65 54 58 53 47 52 47 46 51 48 54 49 35 23 18 6 5 10 25 24 36 26 33 40 29 22 20 18 16 12 9 7 6 8 11 15
45 48 54 57 61 62 66 53 57 51 45 40 44 38 42 38 36 44 47 50 44 26 10 2 22 33 24 19 19 21 25 24 26 22 19 16 12 11 11 12 13 16 17
46 51 46 60 65 61 52 49 42 37 36 33 36 34 34 31 28 19 33 23 32 22 16 16 8 43 30 31 28 39 16 15 23 21 20 18 14 13 12 11 13 14 14
46 51 62 58 49 45 42 36 31 26 29 31 30 25 29 13 24 29 26 14 20 19 19 26 13 20 15 28 38 29 28 23 20 21 18 16 14 13 13 15 18 17 16
58 68 58 44 43 42 38 31 24 25 20 26 23 16 14 12 17 21 23 19 20 20 20 31 35 23 23 30 28 25 21 21 18 18 18 15 14 15 16 19 23 25 21
65 50 43 37 35 35 32 25 20 20 20 16 16 16 31 14 8 15 21 18 18 24 24 29 32 36 32 39 30 26 24 21 18 18 19 16 14 15 19 22 26 25 26
49 51 47 39 33 31 26 20 16 14 16 16 8 9 24 25 17 13 16 16 17 26 24 33 36 40 47 52 45 32 29 22 22 17 19 16 13 19 27 28 28 26 25
51 44 38 24 26 28 20 13 17 11 8 9 6 8 17 27 28 17 17 12 7 17 31 32 41 44 52 51 40 35 32 30 29 19 19 17 12 15 24 35 33 34 33
43 38 29 26 24 17 6 8 12 14 9 7 6 9 14 11 21 18 14 15 12 9 18 30 31 36 51 45 43 41 31 24 8 22 21 18 13 20 28 37 35 39 43
41 39 29 17 20 7 6 6 6 12 11 6 7 10 17 13 18 16 18 21 15 15 16 17 29 19 20 46 45 28 26 24 12 22 22 23 19 12 18 23 31 38 42
38 36 24 20 13 10 7 9 10 7 10 9 16 16 16 17 19 17 22 23 17 18 20 16 22 24 23 27 31 33 24 28 23 25 24 28 23 16 15 17 25 27 34
34 25 16 8 10 13 9 13 19 13 14 12 17 22 17 19 22 20 26 23 24 21 26 30 30 27 30 41 29 18 14 17 15 31 25 24 20 20 23 18 21 24 28
Wind_Direction_500mb
329 322 323 341 326 329 309 303 301 317 311 312 307 318 309 300 262 253 254 268 283 286 287 284 260 254 257 251 245 240 232 229 234 237 241 249 257 261 265 268 267 264 270
312 320 320 330 330 312 302 331 321 314 313 313 306 299 301 295 331 310 262 275 275 274 282 283 267 253 252 248 237 239 233 230 232 232 241 241 250 260 266 260 262 261 265
314 317 322 316 323 319 333 310 324 315 303 303 329 309 297 301 303 299 296 273 266 273 279 264 273 258 250 243 237 235 230 226 223 228 235 237 249 257 260 253 253 257 257
286 310 299 298 300 306 299 312 313 310 311 301 315 308 309 304 307 296 310 274 282 266 284 257 255 262 250 243 231 226 223 221 223 226 230 237 245 249 246 245 245 250 256
296 283 291 287 285 299 295 302 298 306 303 318 307 307 300 308 299 298 271 277 268 270 267 272 262 254 253 237 230 224 222 221 222 228 230 235 234 237 242 245 243 244 247
294 284 279 282 288 297 293 294 297 289 304 296 300 301 298 304 297 298 290 287 280 278 255 279 252 246 236 236 229 225 223 220 219 225 227 227 227 238 238 239 238 232 204
291 287 284 279 276 278 281 281 295 297 288 286 289 294 293 297 299 295 299 283 281 285 280 268 264 331 264 218 222 224 223 220 219 218 223 223 229 227 222 216 204 195 208
306 294 289 292 286 300 300 294 291 288 283 281 279 278 296 292 278 287 294 278 268 267 272 300 284 258 257 248 224 219 219 216 211 210 209 210 209 207 208 199 191 201 233
302 306 298 292 296 299 294 292 288 289 291 288 276 279 272 283 293 274 277 292 264 264 275 273 268 255 241 232 235 221 211 199 197 192 191 195 197 197 178 186 197 217 237
293 296 300 302 292 284 285 286 286 280 283 282 280 264 249 270 288 295 286 295 287 267 270 266 263 253 250 244 230 204 172 157 154 165 169 166 173 181 198 206 220 235 259
320 318 302 292 289 288 289 288 288 284 279 280 279 280 270 265 265 264 286 290 279 263 265 267 270 261 267 272 265 121 139 141 139 167 161 165 168 175 194 203 224 248 269
299 287 303 299 298 298 298 295 291 291 282 273 274 271 268 261 257 262 265 271 276 279 265 263 263 273 303 252 205 180 138 136 146 145 139 148 163 178 198 220 269 297 296
291 291 288 289 290 291 293 297 296 294 296 298 282 271 267 263 259 255 258 269 271 276 258 261 266 265 291 177 170 166 141 134 137 138 133 151 161 166 187 213 277 313 306
301 291 294 293 288 294 296 293 287 290 291 285 290 279 267 262 263 255 249 238 234 260 281 285 273 259 255 228 213 167 142 137 132 130 105 119 137 136 130 104 37 349 337
303 295 287 289 298 295 295 296 286 286 289 289 293 284 267 267 261 253 224 233 246 239 59 21 280 261 217 237 281 156 143 125 114 92 94 95 95 91 84 48 22 6 351
304 301 295 293 298 299 302 294 285 286 276 281 297 280 275 265 258 243 256 243 234 231 172 62 3 183 189 178 121 90 61 94 93 91 94 81 79 66 47 39 20 3 349
304 305 296 299 302 299 299 295 289 275 275 287 297 275 281 265 239 226 201 193 193 190 156 95 320 138 109 123 120 110 127 103 106 99 86 81 73 66 57 38 16 2 343
303 300 303 305 308 303 301 301 288 270 274 284 295 285 264 238 223 213 205 203 190 162 173 131 127 127 134 200 160 147 130 124 113 101 92 86 81 79 57 36 27 16 10
312 307 307 304 304 303 297 293 279 269 284 277 288 264 230 89 179 179 206 192 197 183 173 157 140 150 117 124 136 140 114 120 118 107 96 97 94 78 62 45 34 19 3
314 315 309 305 305 308 292 282 270 256 273 271 279 242 223 282 110 148 158 168 179 181 175 163 139 135 139 154 173 162 137 135 120 109 108 99 89 70 59 38 24 12 12
323 321 313 298 289 303 294 270 260 244 266 266 263 266 214 215 203 163 158 185 214 197 178 186 180 176 165 173 176 168 148 135 115 106 116 117 84 62 42 29 21 19 19
330 321 327 310 299 297 291 257 229 241 262 247 218 217 200 206 216 218 195 194 167 195 198 179 190 185 179 180 180 171 169 155 148 151 146 122 92 76 56 33 32 39 37
339 337 324 317 337 300 222 218 237 216 210 233 212 190 163 178 208 215 214 184 157 146 169 174 195 195 184 186 184 183 183 171 150 157 159 126 112 74 42 29 40 46 43
339 339 334 317 321 296 170 176 152 153 154 173 146 154 153 175 151 181 160 145 112 114 129 143 172 166 183 182 188 190 167 171 163 147 138 138 114 121 39 39 42 44 42
345 346 330 332 309 172 159 172 142 137 147 157 143 135 138 144 150 143 148 139 156 127 135 127 144 143 114 167 173 173 174 185 151 148 141 134 129 108 56 52 37 43 38
340 346 352 19 127 141 149 146 148 132 140 136 139 144 123 124 140 130 125 118 138 131 138 134 134 139 132 142 162 178 188 182 165 146 138 139 136 113 96 52 44 51 44
Wind_Speed_850mb
27 34 24 26 29 29 28 33 36 44 53 45 37 37 35 44 46 53 17 22 29 33 38 33 32 31 31 31 28 25 29 28 29 27 24 19 16 15 15 15 16 17 17
23 30 25 27 28 32 28 32 38 41 42 40 46 46 38 28 27 32 20 24 24 29 34 32 32 34 34 32 34 29 30 29 30 28 25 25 22 21 20 20 21 21 19
30 26 32 27 32 29 31 25 39 43 43 40 39 41 40 38 29 20 18 36 33 35 43 39 36 39 36 34 38 34 32 30 26 25 25 26 24 24 22 22 24 25 27
28 27 32 35 37 41 32 44 44 43 46 48 42 42 47 46 44 38 16 14 34 34 46 45 42 38 43 38 39 37 35 33 27 24 25 25 24 23 22 22 24 24 24
36 38 42 35 37 39 28 40 46 55 49 45 53 53 49 48 52 45 36 23 30 32 28 40 42 43 40 46 41 41 39 38 33 28 27 26 23 22 21 23 22 23 21
45 45 48 45 39 35 30 41 52 60 54 55 48 49 50 53 47 48 45 38 47 40 41 35 51 66 46 42 46 48 43 42 38 34 32 28 26 25 24 23 23 19 17
50 51 52 28 39 40 43 45 43 48 52 55 58 53 49 41 42 46 44 40 38 49 53 57 76 48 19 37 49 48 47 47 42 38 34 29 28 25 23 20 19 19 18
36 37 34 43 44 54 60 52 50 57 59 50 50 52 46 49 49 37 43 53 43 54 45 30 27 33 29 34 45 52 54 52 46 42 35 30 25 22 22 20 19 18 15
52 47 42 50 63 55 49 42 47 50 55 52 50 53 47 46 40 54 45 36 46 43 33 27 31 36 37 42 51 55 56 51 51 42 34 29 25 21 26 25 21 21 22
69 72 64 49 40 39 52 58 61 52 48 47 45 52 51 57 43 46 49 32 32 36 36 33 32 30 30 39 45 73 61 48 39 35 32 30 28 25 20 15 15 15 18
42 35 37 43 48 51 57 62 63 64 66 61 49 53 58 58 53 45 53 48 28 25 32 26 21 23 26 25 24 47 53 47 33 30 30 22 20 16 14 13 12 13 14
62 49 48 54 57 62 60 57 53 47 53 66 64 57 53 48 48 64 53 60 52 39 36 29 20 21 18 8 39 37 35 36 36 24 21 17 13 11 8 4 4 6 7
61 59 51 50 44 48 47 46 44 46 45 44 52 63 59 54 57 56 60 56 52 38 25 30 30 33 26 16 43 41 31 31 27 19 13 9 7 7 4 3 2 4 8
47 43 42 42 46 51 49 50 48 49 46 52 50 54 56 56 58 57 57 39 31 25 22 20 26 27 17 22 28 28 35 31 23 15 13 12 10 8 6 4 3 5 8
44 44 49 56 59 59 61 65 54 58 53 47 52 47 46 51 48 54 49 35 23 18 6 5 10 25 24 36 26 33 40 29 22 20 18 16 12 9 7 6 8 11 15
45 48 54 57 61 62 66 53 57 51 45 40 44 38 42 38 36 44 47 50 44 26 10 2 22 33 24 19 19 21 25 24 26 22 19 16 12 11 11 12 13 16 17
46 51 46 60 65 61 52 49 42 37 36 33 36 34 34 31 28 19 33 23 32 22 16 16 8 43 30 31 28 39 16 15 23 21 20 18 14 13 12 11 13 14 14
46 51 62 58 49 45 42 36 31 26 29 31 30 25 29 13 24 29 26 14 20 19 19 26 13 20 15 28 38 29 28 23 20 21 18 16 14 13 13 15 18 17 16
58 68 58 44 43 42 38 31 24 25 20 26 23 16 14 12 17 21 23 19 20 20 20 31 35 23 23 30 28 25 21 21 18 18 18 15 14 15 16 19 23 25 21
65 50 43 37 35 35 32 25 20 20 20 16 16 16 31 14 8 15 21 18 18 24 24 29 32 36 32 39 30 26 24 21 18 18 19 16 14 15 19 22 26 25 26
49 51 47 39 33 31 26 20 16 14 16 16 8 9 24 25 17 13 16 16 17 26 24 33 36 40 47 52 45 32 29 22 22 17 19 16 13 19 27 28 28 26 25
51 44 38 24 26 28 20 13 17 11 8 9 6 8 17 27 28 17 17 12 7 17 31 32 41 44 52 51 40 35 32 30 29 19 19 17 12 15 24 35 33 34 33
43 38 29 26 24 17 6 8 12 14 9 7 6 9 14 11 21 18 14 15 12 9 18 30 31 36 51 45 43 41 31 24 8 22 21 18 13 20 28 37 35 39 43
41 39 29 17 20 7 6 6 6 12 11 6 7 10 17 13 18 16 18 21 15 15 16 17 29 19 20 46 45 28 26 24 12 22 22 23 19 12 18 23 31 38 42
38 36 24 20 13 10 7 9 10 7 10 9 16 16 16 17 19 17 22 23 17 18 20 16 22 24 23 27 31 33 24 28 23 25 24 28 23 16 15 17 25 27 34
34 25 16 8 10 13 9 13 19 13 14 12 17 22 17 19 22 20 26 23 24 21 26 30 30 27 30 41 29 18 14 17 15 31 25 24 20 20 23 18 21 24 28
Wind_Direction_850mb
329 322 323 341 326 329 309 303 301 317 311 312 307 318 309 300 262 253 254 268 283 286 287 284 260 254 257 251 245 240 232 229 234 237 241 249 257 261 265 268 267 264 270
312 320 320 330 330 312 302 331 321 314 313 313 306 299 301 295 331 310 262 275 275 274 282 283 267 253 252 248 237 239 233 230 232 232 241 241 250 260 266 260 262 261 265
314 317 322 316 323 319 333 310 324 315 303 303 329 309 297 301 303 299 296 273 266 273 279 264 273 258 250 243 237 235 230 226 223 228 235 237 249 257 260 253 253 257 257
286 310 299 298 300 306 299 312 313 310 311 301 315 308 309 304 307 296 310 274 282 266 284 257 255 262 250 243 231 226 223 221 223 226 230 237 245 249 246 245 245 250 256
296 283 291 287 285 299 295 302 298 306 303 318 307 307 300 308 299 298 271 277 268 270 267 272 262 254 253 237 230 224 222 221 222 228 230 235 234 237 242 245 243 244 247
294 284 279 282 288 297 293 294 297 289 304 296 300 301 298 304 297 298 290 287 280 278 255 279 252 246 236 236 229 225 223 220 219 225 227 227 227 238 238 239 238 232 204
291 287 284 279 276 278 281 281 295 297 288 286 289 294 293 297 299 295 299 283 281 285 280 268 264 331 264 218 222 224 223 220 219 218 223 223 229 227 222 216 204 195 208
306 294 289 292 286 300 300 294 291 288 283 281 279 278 296 292 278 287 294 278 268 267 272 300 284 258 257 248 224 219 219 216 211 210 209 210 209 207 208 199 191 201 233
302 306 298 292 296 299 294 292 288 289 291 288 276 279 272 283 293 274 277 292 264 264 275 273 268 255 241 232 235 221 211 199 197 192 191 195 197 197 178 186 197 217 237
293 296 300 302 292 284 285 286 286 280 283 282 280 264 249 270 288 295 286 295 287 267 270 266 263 253 250 244 230 204 172 157 154 165 169 166 173 181 198 206 220 235 259
320 318 302 292 289 288 289 288 288 284 279 280 279 280 270 265 265 264 286 290 279 263 265 267 270 261 267 272 265 121 139 141 139 167 161 165 168 175 194 203 224 248 269
299 287 303 299 298 298 298 295 291 291 282 273 274 271 268 261 257 262 265 271 276 279 265 263 263 273 303 252 205 180 138 136 146 145 139 148 163 178 198 220 269 297 296
291 291 288 289 290 291 293 297 296 294 296 298 282 271 267 263 259 255 258 269 271 276 258 261 266 265 291 177 170 166 141 134 137 138 133 151 161 166 187 213 277 313 306
301 291 294 293 288 294 296 293 287 290 291 285 290 279 267 262 263 255 249 238 234 260 281 285 273 259 255 228 213 167 142 137 132 130 105 119 137 136 130 104 37 349 337
303 295 287 289 298 295 295 296 286 286 289 289 293 284 267 267 261 253 224 233 246 239 59 21 280 261 217 237 281 156 143 125 114 92 94 95 95 91 84 48 22 6 351
304 301 295 293 298 299 302 294 285 286 276 281 297 280 275 265 258 243 256 243 234 231 172 62 3 183 189 178 121 90 61 94 93 91 94 81 79 66 47 39 20 3 349
304 305 296 299 302 299 299 295 289 275 275 287 297 275 281 265 239 226 201 193 193 190 156 95 320 138 109 123 120 110 127 103 106 99 86 81 73 66 57 38 16 2 343
303 300 303 305 308 303 301 301 288 270 274 284 295 285 264 238 223 213 205 203 190 162 173 131 127 127 134 200 160 147 130 124 113 101 92 86 81 79 57 36 27 16 10
312 307 307 304 304 303 297 293 279 269 284 277 288 264 230 89 179 179 206 192 197 183 173 157 140 150 117 124 136 140 114 120 118 107 96 97 94 78 62 45 34 19 3
314 315 309 305 305 308 292 282 270 256 273 271 279 242 223 282 110 148 158 168 179 181 175 163 139 135 139 154 173 162 137 135 120 109 108 99 89 70 59 38 24 12 12
323 321 313 298 289 303 294 270 260 244 266 266 263 266 214 215 203 163 158 185 214 197 178 186 180 176 165 173 176 168 148 135 115 106 116 117 84 62 42 29 21 19 19
330 321 327 310 299 297 291 257 229 241 262 247 218 217 200 206 216 218 195 194 167 195 198 179 190 185 179 180 180 171 169 155 148 151 146 122 92 76 56 33 32 39 37
339 337 324 317 337 300 222 218 237 216 210 233 212 190 163 178 208 215 214 184 157 146 169 174 195 195 184 186 184 183 183 171 150 157 159 126 112 74 42 29 40 46 43
339 339 334 317 321 296 170 176 152 153 154 173 146 154 153 175 151 181 160 145 112 114 129 143 172 166 183 182 188 190 167 171 163 147 138 138 114 121 39 39 42 44 42
345 346 330 332 309 172 159 172 142 137 147 157 143 135 138 144 150 143 148 139 156 127 135 127 144 143 114 167 173 173 174 185 151 148 141 134 129 108 56 52 37 43 38
340 346 352 19 127 141 149 146 148 132 140 136 139 144 123 124 140 130 125 118 138 131 138 134 134 139 132 142 162 178 188 182 165 146 138 139 136 113 96 52 44 51 44